Location: Lachepaillet
(43.4918°N, 1.4874°W)
Time: 23:32:51
(UTC+00:00)

Cosmos 1302 Rocket - Pass Details

Date: 15 May 2026
Orbit: 751 x 772 km, 74.0° (Epoch: 11 June)

Event Time Altitude Azimuth Distance (km) Brightness Sun altitude
Rises 20:08:19 0° 200° (SSW) 3,186 7.0 -7.7°
Reaches altitude 10° 20:10:40 10° 200° (SSW) 2,267 6.3 -8.0°
Maximum altitude 20:15:49 86° 289° (WNW) 761 4.0 -8.8°
Drops below altitude 10° 20:21:01 10° 20° (NNE) 2,291 6.7 -9.5°
Sets 20:23:24 0° 21° (NNE) 3,223 7.5 -9.9°
